Stanley, ND

7:52 PM CST on February 24, 2017 (GMT -0600)
Stanley

Weather History for K08D - November, 2012

Change the Weather History Date:

Wednesday, November 28, 2012

  Actual Average (KMIB) Record (KMIB)
Temperature  
Mean Temperature 22 °F -  
Max Temperature 30 °F 28 °F 53 °F (2002)
Min Temperature 14 °F 14 °F -3 °F (2007)
Degree Days  
Heating Degree Days 43    
Moisture  
Dew Point 21 °F    
Average Humidity 98    
Maximum Humidity 100    
Minimum Humidity 80    
Precipitation  
Precipitation 0.00 in - - ()
Sea Level Pressure  
Sea Level Pressure 30.04 in    
Wind  
Wind Speed 8 mph (SE)    
Max Wind Speed 18 mph    
Max Gust Speed 17 mph    
Visibility 8 miles    
Events Fog    
Averages and records for this station are not official NWS values.
T = Trace of Precipitation, MM = Missing Value Source: NWS Daily Summary

Daily Weather History Graph

Daily Weather History Graph

Search for Another Location

Airport or City:

Trip Planner

Search our weather history database for the weather conditions in past years. The results will help you decide how hot, cold, wet, or windy it might be!

Date:

Astronomy

Nov. 28, 2012 Rise Set
Actual Time 8:16 AM CST 4:58 PM CST
Civil Twilight 7:40 AM CST 5:34 PM CST
Nautical Twilight 7:01 AM CST 6:13 PM CST
Astronomical Twilight 6:24 AM CST 6:50 PM CST
Moon 5:15 PM CST (11/28) 8:15 AM CST (11/28)
Length of Visible Light 9h 53m
Length of Day
8h 42m
Full, 100% of the Moon is Illuminated
Nov 28
Full
Dec 6
Last Quarter
Dec 13
New
Dec 19
First Quarter
Dec 28
Full

Hourly Weather History & Observations

Time (CST) Temp. Windchill Dew Point Humidity Pressure Visibility Wind Dir Wind Speed Gust Speed Precip Events Conditions
12:35 AM 19.4 °F 12.8 °F 19.4 °F 100% 30.15 in 0.2 mi South 4.6 mph - N/A Fog Light Freezing Fog
12:55 AM 19.4 °F 11.5 °F 19.4 °F 100% 30.15 in 0.2 mi SSW 5.8 mph - N/A Fog Light Freezing Fog
1:15 AM 19.4 °F 10.4 °F 19.4 °F 100% 30.15 in 0.2 mi South 6.9 mph - N/A Fog Light Freezing Fog
1:35 AM 19.4 °F 10.4 °F 19.4 °F 100% 30.14 in 0.2 mi South 6.9 mph - N/A Fog Light Freezing Fog
1:55 AM 19.4 °F 10.4 °F 19.4 °F 100% 30.14 in 0.2 mi South 6.9 mph - N/A Fog Light Freezing Fog
2:15 AM 17.6 °F 7.3 °F 17.6 °F 100% 30.13 in 0.5 mi South 8.1 mph - N/A Fog Light Freezing Fog
2:35 AM 19.4 °F 8.6 °F 19.4 °F 100% 30.12 in 0.2 mi South 9.2 mph - N/A Fog Light Freezing Fog
2:55 AM 19.4 °F 8.6 °F 19.4 °F 100% 30.11 in 0.2 mi South 9.2 mph - N/A Fog Light Freezing Fog
3:15 AM 19.4 °F 7.2 °F 19.4 °F 100% 30.11 in 0.2 mi South 11.5 mph - N/A Fog Light Freezing Fog
3:35 AM 19.4 °F 7.9 °F 19.4 °F 100% 30.10 in 0.5 mi South 10.4 mph - N/A Fog Light Freezing Fog
3:55 AM 21.2 °F 11.7 °F 21.2 °F 100% 30.09 in 0.2 mi South 8.1 mph - N/A Fog Light Freezing Fog
4:15 AM 21.2 °F 9.5 °F 21.2 °F 100% 30.08 in 0.5 mi South 11.5 mph - N/A Fog Light Freezing Fog
4:35 AM 21.2 °F 11.7 °F 21.2 °F 100% 30.07 in 0.2 mi South 8.1 mph - N/A Fog Light Freezing Fog
4:55 AM 23.0 °F 13.1 °F 23.0 °F 100% 30.07 in 0.2 mi South 9.2 mph - N/A Fog Light Freezing Fog
5:15 AM 23.0 °F 9.2 °F 23.0 °F 100% 30.05 in 0.8 mi South 17.3 mph - N/A   Overcast
5:35 AM 23.0 °F 8.7 °F 23.0 °F 100% 30.04 in 1.2 mi South 18.4 mph - N/A   Overcast
5:55 AM 23.0 °F 10.6 °F 23.0 °F 100% 30.03 in 5.0 mi South 13.8 mph - N/A   Overcast
6:15 AM 21.2 °F 11.7 °F 21.2 °F 100% 30.02 in 10.0 mi SSW 8.1 mph - N/A   Overcast
6:35 AM 21.2 °F 12.6 °F 21.2 °F 100% 30.03 in 10.0 mi SSW 6.9 mph - N/A   Mostly Cloudy
6:55 AM 21.2 °F - 21.2 °F 100% 30.02 in 10.0 mi North - - N/A   Scattered Clouds
7:15 AM 19.4 °F - 19.4 °F 100% 30.02 in 10.0 mi North - - N/A   Clear
7:35 AM 19.4 °F 10.4 °F 19.4 °F 100% 30.01 in 10.0 mi SSW 6.9 mph - N/A   Clear
7:55 AM 19.4 °F 11.5 °F 19.4 °F 100% 30.02 in 10.0 mi SSW 5.8 mph - N/A   Clear
8:15 AM 19.4 °F 11.5 °F 19.4 °F 100% 30.01 in 10.0 mi SSW 5.8 mph - N/A   Clear
8:35 AM 19.4 °F 14.3 °F 19.4 °F 100% 30.01 in 10.0 mi SSW 3.5 mph - N/A   Clear
8:55 AM 19.4 °F 12.8 °F 19.4 °F 100% 30.01 in 10.0 mi SSW 4.6 mph - N/A   Clear
9:15 AM 21.2 °F - 21.2 °F 100% 30.01 in 10.0 mi Calm Calm - N/A   Clear
9:35 AM 23.0 °F 17.0 °F 23.0 °F 100% 30.01 in 10.0 mi WSW 4.6 mph - N/A   Clear
9:55 AM 23.0 °F 14.7 °F 23.0 °F 100% 30.01 in 10.0 mi WSW 6.9 mph - N/A   Clear
10:15 AM 24.8 °F 16.9 °F 24.8 °F 100% 30.01 in 10.0 mi WSW 6.9 mph - N/A   Clear
10:35 AM 24.8 °F 17.9 °F 24.8 °F 100% 30.01 in 10.0 mi SW 5.8 mph - N/A   Clear
10:55 AM 26.6 °F 20.0 °F 26.6 °F 100% 30.01 in 10.0 mi WSW 5.8 mph - N/A   Clear
11:15 AM 26.6 °F 17.5 °F 26.6 °F 100% 30.01 in 10.0 mi WSW 9.2 mph - N/A   Clear
11:35 AM 28.4 °F 20.4 °F 28.4 °F 100% 30.01 in 10.0 mi WSW 8.1 mph - N/A   Clear
11:55 AM 28.4 °F 23.3 °F 28.4 °F 100% 30.01 in 10.0 mi West 4.6 mph - N/A   Clear
12:35 PM 28.4 °F 19.7 °F 28.4 °F 100% 30.00 in 10.0 mi West 9.2 mph - N/A   Clear
12:55 PM 28.4 °F 21.2 °F 28.4 °F 100% 29.99 in 10.0 mi WNW 6.9 mph - N/A   Clear
1:15 PM 28.4 °F 22.2 °F 28.4 °F 100% 29.99 in 10.0 mi WNW 5.8 mph - N/A   Clear
1:35 PM 28.4 °F 22.2 °F 28.4 °F 100% 29.99 in 10.0 mi WNW 5.8 mph - N/A   Clear
1:55 PM 28.4 °F 23.3 °F 28.4 °F 100% 29.99 in 10.0 mi NNW 4.6 mph - N/A   Clear
2:15 PM 30.2 °F 20.8 °F 30.2 °F 100% 29.99 in 10.0 mi North 11.5 mph 16.1 mph N/A   Clear
2:35 PM 30.2 °F 20.8 °F 28.4 °F 93% 29.99 in 10.0 mi North 11.5 mph - N/A   Clear
2:55 PM 30.2 °F 19.8 °F 26.6 °F 86% 30.00 in 10.0 mi North 13.8 mph - N/A   Clear
3:15 PM 30.2 °F 21.3 °F 26.6 °F 86% 29.99 in 10.0 mi North 10.4 mph - N/A   Clear
3:35 PM 28.4 °F 18.0 °F 24.8 °F 86% 30.00 in 10.0 mi North 12.7 mph - N/A   Clear
3:55 PM 28.4 °F 19.1 °F 23.0 °F 80% 30.00 in 10.0 mi NE 10.4 mph 16.1 mph N/A   Clear
4:15 PM 26.6 °F 17.5 °F 23.0 °F 86% 30.02 in 10.0 mi NNE 9.2 mph - N/A   Clear
4:35 PM 26.6 °F 18.2 °F 23.0 °F 86% 30.02 in 10.0 mi NE 8.1 mph - N/A   Scattered Clouds
4:55 PM 24.8 °F 16.9 °F 23.0 °F 93% 30.03 in 10.0 mi NE 6.9 mph - N/A   Partly Cloudy
5:15 PM 23.0 °F 13.1 °F 21.2 °F 93% 30.04 in 10.0 mi NE 9.2 mph 17.3 mph N/A   Mostly Cloudy
5:35 PM 23.0 °F 13.9 °F 21.2 °F 93% 30.03 in 10.0 mi ENE 8.1 mph 17.3 mph N/A   Overcast
5:55 PM 21.2 °F 11.7 °F 19.4 °F 93% 30.02 in 10.0 mi NE 8.1 mph 17.3 mph N/A   Mostly Cloudy
6:15 PM 19.4 °F 9.5 °F 19.4 °F 100% 30.02 in 10.0 mi ENE 8.1 mph - N/A   Clear
6:35 PM 19.4 °F 8.6 °F 19.4 °F 100% 30.03 in 10.0 mi ENE 9.2 mph - N/A   Clear
6:55 PM 19.4 °F 8.6 °F 17.6 °F 93% 30.04 in 10.0 mi NE 9.2 mph - N/A   Clear
7:15 PM 17.6 °F 7.3 °F 15.8 °F 93% 30.04 in 10.0 mi NE 8.1 mph - N/A   Clear
7:35 PM 17.6 °F 5.7 °F 15.8 °F 93% 30.04 in 10.0 mi NE 10.4 mph 16.1 mph N/A   Clear
7:55 PM 15.8 °F 3.4 °F 14.0 °F 93% 30.04 in 10.0 mi NE 10.4 mph 17.3 mph N/A   Scattered Clouds
8:15 PM 15.8 °F 3.4 °F 15.8 °F 100% 30.04 in 10.0 mi NE 10.4 mph - N/A   Overcast
8:35 PM 15.8 °F 3.4 °F 14.0 °F 93% 30.04 in 10.0 mi NE 10.4 mph 17.3 mph N/A   Overcast
8:55 PM 15.8 °F 6.1 °F 14.0 °F 93% 30.05 in 10.0 mi ENE 6.9 mph 16.1 mph N/A   Overcast
9:15 PM 15.8 °F 4.2 °F 14.0 °F 93% 30.05 in 10.0 mi ENE 9.2 mph - N/A   Overcast
9:35 PM 14.0 °F 6.5 °F 14.0 °F 100% 30.05 in 10.0 mi NE 4.6 mph 16.1 mph N/A   Overcast
9:55 PM 14.0 °F 2.0 °F 14.0 °F 100% 30.08 in 10.0 mi NE 9.2 mph - N/A   Overcast
10:15 PM 14.0 °F 2.0 °F 14.0 °F 100% 30.06 in 10.0 mi ENE 9.2 mph 17.3 mph N/A   Overcast
10:35 PM 14.0 °F 1.2 °F 14.0 °F 100% 30.06 in 10.0 mi ENE 10.4 mph 16.1 mph N/A   Overcast
10:55 PM 14.0 °F 0.5 °F 14.0 °F 100% 30.05 in 10.0 mi ENE 11.5 mph - N/A   Overcast
11:15 PM 14.0 °F 2.9 °F 14.0 °F 100% 30.06 in 10.0 mi ENE 8.1 mph - N/A   Overcast
11:35 PM 14.0 °F 2.0 °F 14.0 °F 100% 30.06 in 10.0 mi ENE 9.2 mph - N/A   Overcast
11:55 PM 14.0 °F 3.9 °F 14.0 °F 100% 30.07 in 2.5 mi ENE 6.9 mph - N/A   Overcast